Wind_Speed
28 29 30 30 30 31 32 32 33 34 35 36 36 36 36 36 37 38 38 39 39 40 41 40 41 41 41 40 42 42 43 43 43 42 41 39 37 36
30 30 31 32 32 32 33 34 34 35 35 37 38 39 39 39 39 39 40 40 41 41 42 42 42 42 43 42 42 43 43 45 44 44 43 42 40 39
31 32 32 33 33 34 34 35 35 36 35 37 39 39 40 40 41 41 41 41 42 42 43 44 44 44 44 44 43 44 44 45 45 45 45 44 42 41
33 33 33 33 33 34 34 35 36 36 36 36 38 39 40 41 42 42 43 43 43 43 44 45 45 45 45 45 45 45 45 45 45 45 45 45 44 43
34 34 34 34 34 34 34 34 35 35 35 35 36 38 39 41 41 42 43 44 44 44 45 45 46 46 46 46 46 46 45 45 46 46 46 45 45 45
35 35 35 35 35 34 34 33 34 34 35 34 35 37 38 40 41 42 43 45 45 45 45 46 46 46 46 47 47 47 47 47 47 47 47 46 45 45
36 36 36 35 35 34 33 33 33 33 34 34 34 35 37 39 40 41 42 44 45 45 46 46 47 46 47 48 48 48 48 48 48 48 47 47 46 46
36 37 37 36 35 34 34 33 33 33 34 34 34 35 36 38 39 40 41 43 44 46 46 46 47 47 47 48 48 48 48 49 49 49 48 48 47 46
37 37 37 36 35 35 34 33 33 33 33 33 32 33 34 36 38 39 40 41 43 45 46 46 47 47 46 47 47 49 48 48 48 49 49 49 48 46
38 37 36 35 35 35 34 34 33 33 33 32 32 32 33 34 36 38 39 39 40 43 46 46 47 47 47 47 47 47 49 49 49 49 50 50 49 48
38 37 36 35 36 35 34 33 33 33 33 33 32 32 33 34 35 36 38 39 39 42 45 46 47 48 47 48 48 48 49 49 49 49 50 50 50 49
39 38 37 36 36 35 34 33 32 32 32 32 32 32 32 33 34 36 37 39 39 41 44 46 47 48 48 48 48 48 49 49 48 49 49 50 50 50
38 37 36 36 35 35 34 33 32 31 31 31 31 32 32 33 34 35 37 38 39 40 43 46 47 48 48 48 48 48 48 49 49 49 49 50 50 50
38 37 36 35 35 35 33 32 31 30 30 30 30 31 32 33 34 35 36 38 39 40 42 45 46 48 48 47 47 48 48 49 50 49 49 49 50 50
38 36 35 35 35 34 32 31 30 29 29 29 29 30 31 32 33 33 35 36 38 39 41 44 46 48 48 48 48 48 48 48 49 50 50 50 50 51
37 36 35 35 34 33 31 30 29 28 28 28 28 29 29 30 30 31 32 34 36 38 40 42 44 47 48 49 49 49 49 48 49 50 50 50 51 51
37 36 35 35 34 32 30 29 29 28 28 27 27 27 28 28 29 30 31 33 34 36 39 41 43 45 47 49 49 49 49 47 47 49 51 51 50 50
38 37 35 34 32 31 30 29 28 27 27 27 26 26 26 26 27 29 30 32 33 35 38 41 43 44 45 47 48 48 49 49 48 49 50 51 51 50
38 36 35 33 32 31 30 29 28 27 26 26 25 25 25 25 25 27 28 30 32 34 37 39 41 42 43 45 47 49 49 48 48 48 48 49 50 50
36 34 33 33 32 30 30 29 28 27 26 26 25 24 24 24 24 25 27 28 30 32 35 38 39 41 42 44 47 48 49 48 48 47 47 48 49 50
35 33 32 32 30 29 29 28 27 26 26 26 25 24 24 23 23 24 25 27 28 30 33 35 38 40 42 43 45 47 48 48 48 47 47 47 48 49
33 32 31 30 29 28 28 27 27 26 26 25 25 24 24 23 22 23 23 24 26 29 31 34 37 39 41 42 44 46 48 49 48 47 47 46 45 47
31 31 31 29 27 27 27 26 26 26 25 24 23 23 23 22 22 22 22 23 24 27 30 32 35 37 39 40 43 45 47 48 47 46 45 45 45 46
Wind_Direction
305 302 298 295 290 286 282 277 272 269 267 264 260 257 253 251 249 246 243 241 240 240 239 237 236 235 235 235 234 233 233 231 231 231 231 232 233 234
307 305 302 298 293 289 285 280 275 270 267 265 262 258 255 252 249 247 244 242 240 239 238 238 236 235 234 234 234 232 232 231 231 232 231 232 234 234
308 306 303 300 296 291 287 283 278 272 267 264 262 259 256 253 250 247 245 243 241 240 238 238 236 235 234 234 234 233 232 231 231 231 232 232 233 233
310 308 305 302 298 293 290 285 280 275 270 265 262 259 257 253 250 248 246 244 241 239 238 238 237 235 234 233 233 233 231 231 230 231 231 232 231 232
310 309 307 304 300 296 292 288 283 278 273 268 263 260 257 254 251 248 246 244 242 240 239 237 236 235 234 233 232 231 231 230 230 230 230 231 231 232
311 309 307 304 301 297 293 289 285 280 276 271 265 261 258 256 252 249 246 244 242 240 238 237 235 235 234 233 232 231 230 230 229 229 229 230 231 232
310 309 307 304 301 298 295 291 287 282 277 272 267 263 260 257 254 250 246 244 242 240 238 236 235 234 233 232 232 230 229 228 228 228 229 229 230 231
310 308 306 304 302 298 295 292 289 284 279 274 270 266 261 258 254 251 247 243 241 239 237 235 234 232 231 231 230 229 229 228 227 228 228 228 228 229
310 308 306 304 302 299 296 294 290 286 280 275 271 267 263 259 255 251 248 244 240 239 237 234 233 231 230 230 229 228 227 227 228 227 227 227 227 228
309 308 305 304 303 300 297 294 290 286 280 276 272 268 265 261 257 252 249 245 241 239 237 233 233 232 231 229 228 228 227 226 227 227 227 227 226 227
309 307 305 304 303 301 298 294 290 286 281 278 274 270 266 262 258 253 249 246 242 239 237 234 232 232 230 229 228 227 227 226 226 226 227 226 226 226
308 306 305 304 302 300 297 295 291 287 283 279 275 272 267 263 259 255 250 246 243 240 238 235 231 231 229 228 228 227 226 225 225 225 225 226 225 225
307 305 304 304 302 299 297 295 291 288 284 281 276 273 269 264 260 256 252 246 243 240 238 235 232 230 228 226 226 226 226 224 223 223 224 224 224 223
305 304 302 302 302 299 297 294 292 289 285 281 278 275 271 265 261 257 253 248 244 240 238 235 232 230 227 225 225 224 225 223 222 222 222 222 223 223
304 303 301 301 301 299 297 295 293 290 286 283 280 277 273 267 262 258 253 248 244 241 238 235 232 230 228 225 224 224 224 223 222 221 221 221 221 222
302 302 301 300 301 299 296 294 293 291 287 286 283 279 275 270 263 258 254 249 245 241 238 235 232 229 227 225 224 224 224 223 222 221 220 220 220 220
300 300 300 300 299 298 296 294 293 291 289 287 286 281 276 272 265 258 254 251 246 242 238 234 232 229 228 226 224 223 222 222 223 222 220 219 219 219
297 298 298 298 297 296 295 294 292 291 290 288 286 282 277 272 266 261 257 252 248 242 237 234 232 230 227 225 223 222 222 222 223 222 220 219 218 218
295 295 295 295 295 294 295 294 291 290 290 290 286 282 279 275 269 263 259 253 248 242 237 233 231 229 226 222 221 222 220 220 221 221 220 218 217 216
293 293 294 294 293 292 293 294 292 288 288 289 287 282 279 277 271 265 260 255 247 242 237 233 230 227 224 221 219 219 220 219 219 219 218 217 215 215
291 291 292 293 292 292 293 292 291 288 286 286 285 282 279 278 273 268 263 255 248 241 236 231 228 225 223 221 218 217 218 217 217 219 217 215 214 214
288 289 291 292 292 292 291 291 290 288 286 284 283 281 278 276 274 270 264 257 248 240 234 230 227 224 222 220 217 216 216 216 216 217 216 214 214 213
285 286 289 290 290 291 290 289 289 288 286 283 281 280 278 274 272 269 264 257 248 239 232 229 226 223 221 219 216 215 215 215 215 215 214 214 213 212
Height
5800 5797 5794 5792 5790 5789 5788 5787 5787 5786 5785 5785 5786 5787 5788 5790 5791 5794 5796 5799 5802 5805 5809 5812 5817 5821 5825 5830 5834 5839 5843 5849 5854 5859 5864 5868 5873 5877
5792 5789 5786 5783 5781 5779 5777 5776 5775 5775 5775 5774 5774 5775 5777 5778 5780 5783 5785 5788 5791 5794 5798 5802 5806 5811 5815 5820 5824 5829 5834 5839 5844 5850 5855 5860 5865 5869
5784 5780 5777 5774 5771 5768 5766 5764 5763 5763 5763 5762 5762 5763 5764 5766 5768 5771 5774 5777 5780 5783 5787 5791 5795 5800 5804 5809 5814 5819 5824 5829 5835 5840 5845 5851 5856 5861
5775 5771 5767 5764 5761 5758 5755 5753 5751 5750 5751 5751 5750 5750 5752 5753 5756 5759 5761 5765 5768 5772 5776 5780 5784 5789 5793 5798 5803 5808 5813 5819 5825 5830 5836 5842 5847 5852
5767 5762 5758 5755 5751 5748 5745 5742 5740 5738 5738 5738 5738 5738 5739 5740 5743 5746 5749 5752 5756 5760 5764 5768 5772 5777 5782 5787 5792 5798 5803 5809 5815 5820 5826 5831 5837 5843
5758 5753 5749 5745 5741 5738 5735 5732 5729 5727 5726 5726 5726 5726 5727 5727 5730 5733 5736 5739 5743 5747 5751 5756 5760 5765 5770 5776 5781 5787 5792 5798 5804 5810 5816 5822 5827 5833
5749 5744 5740 5735 5731 5728 5724 5721 5719 5717 5715 5714 5714 5714 5715 5715 5717 5719 5722 5725 5729 5733 5738 5743 5748 5754 5758 5763 5769 5775 5781 5787 5793 5799 5805 5812 5817 5823
5740 5735 5730 5726 5722 5718 5714 5711 5708 5706 5704 5703 5702 5702 5702 5702 5704 5706 5709 5713 5718 5721 5725 5730 5735 5741 5746 5751 5757 5763 5769 5775 5782 5788 5795 5801 5807 5813
5731 5725 5720 5716 5712 5708 5704 5701 5698 5695 5693 5692 5691 5691 5690 5690 5691 5694 5696 5699 5704 5707 5712 5718 5723 5728 5733 5739 5744 5751 5757 5764 5770 5777 5784 5790 5797 5803
5721 5716 5711 5706 5702 5698 5694 5691 5687 5685 5682 5681 5680 5680 5679 5679 5679 5681 5683 5687 5692 5695 5699 5706 5710 5715 5721 5727 5733 5739 5745 5752 5759 5766 5772 5779 5786 5792
5711 5706 5701 5696 5692 5687 5684 5681 5677 5674 5671 5670 5669 5668 5668 5668 5668 5670 5672 5675 5679 5683 5686 5692 5698 5702 5708 5715 5721 5727 5734 5740 5747 5754 5761 5768 5775 5781
5701 5695 5691 5686 5682 5677 5673 5670 5667 5664 5661 5660 5658 5658 5657 5657 5657 5658 5660 5663 5667 5671 5674 5679 5685 5689 5697 5703 5709 5715 5722 5729 5736 5743 5750 5756 5763 5770
5691 5686 5681 5676 5671 5667 5663 5660 5657 5654 5652 5649 5648 5647 5646 5646 5646 5647 5649 5651 5655 5659 5662 5665 5672 5677 5685 5692 5697 5704 5710 5717 5724 5731 5738 5745 5752 5760
5681 5676 5671 5666 5662 5657 5654 5650 5647 5644 5642 5640 5638 5636 5635 5635 5635 5635 5637 5639 5642 5646 5649 5654 5660 5666 5673 5680 5686 5692 5699 5705 5713 5720 5727 5734 5741 5749
5670 5666 5661 5656 5652 5648 5644 5640 5637 5634 5632 5630 5628 5626 5624 5624 5623 5624 5625 5627 5630 5634 5637 5642 5647 5653 5660 5668 5674 5681 5687 5694 5701 5709 5716 5723 5731 5738
5660 5655 5651 5646 5642 5638 5635 5631 5628 5625 5622 5620 5618 5616 5614 5613 5613 5613 5614 5616 5619 5622 5626 5630 5635 5641 5648 5655 5662 5670 5676 5683 5690 5698 5705 5713 5720 5728
5649 5645 5641 5637 5633 5629 5626 5622 5619 5616 5613 5611 5608 5606 5604 5603 5603 5603 5604 5605 5608 5611 5614 5618 5623 5629 5636 5643 5651 5658 5665 5672 5679 5687 5694 5702 5710 5717
5638 5635 5631 5627 5623 5620 5616 5613 5610 5607 5604 5602 5599 5597 5595 5594 5593 5593 5594 5595 5597 5599 5602 5607 5612 5617 5624 5632 5640 5647 5654 5662 5669 5676 5683 5691 5699 5707
5627 5624 5620 5617 5614 5610 5607 5604 5601 5598 5596 5593 5591 5589 5587 5585 5584 5584 5584 5584 5586 5588 5591 5595 5600 5607 5614 5622 5629 5636 5643 5650 5657 5665 5673 5681 5689 5697
5616 5613 5610 5607 5604 5601 5598 5595 5592 5589 5587 5585 5582 5580 5578 5577 5575 5575 5574 5575 5576 5578 5581 5585 5590 5597 5603 5610 5617 5624 5631 5639 5647 5655 5663 5670 5678 5686
5605 5603 5600 5597 5594 5591 5588 5586 5583 5580 5578 5576 5574 5572 5570 5568 5567 5566 5565 5565 5566 5569 5572 5576 5580 5585 5591 5598 5607 5615 5622 5630 5637 5645 5653 5660 5668 5676
5594 5592 5590 5587 5584 5582 5579 5576 5574 5571 5569 5567 5565 5563 5562 5560 5559 5557 5557 5557 5558 5560 5563 5566 5570 5576 5583 5590 5597 5605 5612 5620 5627 5635 5643 5652 5659 5668
5584 5582 5580 5577 5575 5572 5570 5567 5565 5562 5560 5558 5557 5555 5553 5552 5551 5550 5549 5549 5550 5552 5555 5558 5562 5568 5574 5581 5588 5595 5603 5610 5618 5626 5634 5642 5650 5658